TimeEST,TemperatureF,Dew PointF,Humidity,Sea Level PressureIn,VisibilityMPH,Wind Direction,Wind SpeedMPH,Gust SpeedMPH,PrecipitationIn,Events,Conditions,WindDirDegrees,DateUTC
12:54 AM,15.1,6.1,68,30.24,10.0,Calm,Calm,-,N/A,,Clear,0,2013-02-11 05:54:00
1:54 AM,18.0,6.1,60,30.21,10.0,Calm,Calm,-,N/A,,Clear,0,2013-02-11 06:54:00
2:54 AM,32.0,-0.0,26,30.18,10.0,Variable,5.8,-,N/A,,Overcast,0,2013-02-11 07:54:00
3:54 AM,35.1,-0.9,22,30.14,10.0,SE,5.8,-,N/A,,Partly Cloudy,130,2013-02-11 08:54:00
4:54 AM,34.0,5.0,30,30.13,10.0,Calm,Calm,-,N/A,,Overcast,0,2013-02-11 09:54:00
5:54 AM,36.0,10.9,36,30.09,10.0,South,5.8,-,N/A,,Overcast,170,2013-02-11 10:54:00
7:54 AM,35.1,28.0,76,30.04,6.0,SSE,12.7,18.4,0.00,Rain,Light Rain,160,2013-02-11 12:54:00
8:54 AM,35.1,28.0,76,30.01,5.0,SSE,12.7,18.4,0.03,Snow,Light Snow,160,2013-02-11 13:54:00
9:07 AM,35.6,28.4,75,29.97,2.5,South,9.2,19.6,0.02,Snow,Light Snow,190,2013-02-11 14:07:00
9:17 AM,35.6,28.4,75,29.96,7.0,SSE,5.8,21.9,0.03,,Overcast,160,2013-02-11 14:17:00
9:54 AM,37.0,30.0,76,29.95,10.0,South,8.1,18.4,0.04,Rain,Light Rain,180,2013-02-11 14:54:00
10:54 AM,37.9,32.0,79,29.87,4.0,South,12.7,24.2,0.03,Rain,Light Rain,180,2013-02-11 15:54:00
11:54 AM,41.0,35.1,79,29.83,10.0,South,17.3,27.6,0.00,Rain,Light Rain,180,2013-02-11 16:54:00
12:54 PM,44.1,37.0,76,29.79,10.0,Variable,5.8,18.4,0.00,,Overcast,0,2013-02-11 17:54:00
1:54 PM,44.1,37.0,76,29.76,10.0,SSW,8.1,-,N/A,,Overcast,210,2013-02-11 18:54:00
2:54 PM,45.0,37.9,76,29.70,10.0,Variable,3.5,-,N/A,,Mostly Cloudy,0,2013-02-11 19:54:00
3:04 PM,44.6,37.4,76,29.68,10.0,Calm,Calm,-,N/A,,Scattered Clouds,0,2013-02-11 20:04:00
3:54 PM,44.1,37.0,76,29.68,10.0,SW,4.6,-,N/A,,Mostly Cloudy,220,2013-02-11 20:54:00
4:54 PM,42.1,37.0,82,29.67,10.0,Calm,Calm,-,N/A,,Partly Cloudy,0,2013-02-11 21:54:00
5:54 PM,39.9,36.0,86,29.64,10.0,Calm,Calm,-,N/A,,Overcast,0,2013-02-11 22:54:00
6:54 PM,41.0,37.0,86,29.63,10.0,Calm,Calm,-,N/A,,Mostly Cloudy,0,2013-02-11 23:54:00
7:32 PM,41.0,37.4,87,29.64,10.0,WSW,8.1,-,N/A,,Overcast,240,2013-02-12 00:32:00
7:54 PM,39.9,37.0,89,29.65,10.0,SSW,6.9,-,N/A,,Overcast,200,2013-02-12 00:54:00
8:29 PM,39.2,37.4,93,29.64,10.0,South,3.5,-,N/A,,Overcast,180,2013-02-12 01:29:00
8:54 PM,37.9,36.0,93,29.66,8.0,WNW,3.5,-,0.00,Rain,Light Rain,300,2013-02-12 01:54:00
9:02 PM,39.2,35.6,87,29.65,6.0,WNW,5.8,-,0.00,Rain,Light Rain,290,2013-02-12 02:02:00
9:20 PM,39.2,35.6,87,29.67,5.0,West,12.7,20.7,0.01,Rain,Light Rain,280,2013-02-12 02:20:00
9:45 PM,37.4,33.8,87,29.69,10.0,West,8.1,19.6,0.01,Rain,Light Rain,280,2013-02-12 02:45:00
9:54 PM,37.9,34.0,86,29.71,10.0,West,8.1,16.1,0.01,,Overcast,270,2013-02-12 02:54:00
11:16 PM,35.6,30.2,81,29.67,6.0,Calm,Calm,-,0.00,Snow,Light Snow,0,2013-02-12 04:16:00
11:54 PM,35.1,28.0,76,29.69,10.0,Variable,3.5,-,0.00,,Overcast,0,2013-02-12 04:54:00